| time (UTC) | temp F | wind direction | speed knots | gust knots | rain 1hr in | rain 24hr in | rain mn in | humidity % | barometer mb |
| 20260901101524 | 58 | 111 | 3.5 | 8.7 | 0.00 | 0.00 | 0.00 | 78 | 1012.9 |
| 20260901100021 | 58 | 100 | 2.6 | 7.0 | 0.00 | 0.00 | 0.00 | 78 | 1012.9 |
| 20260901094520 | 58 | 127 | 1.7 | 8.7 | 0.00 | 0.00 | 0.00 | 78 | 1012.9 |
| 20260901093017 | 58 | 117 | 3.5 | 8.7 | 0.00 | 0.00 | 0.00 | 78 | 1013.0 |
| 20260901091518 | 58 | 79 | 3.5 | 9.6 | 0.00 | 0.00 | 0.00 | 78 | 1013.0 |
| 20260901090018 | 58 | 117 | 4.3 | 7.0 | 0.00 | 0.00 | 0.00 | 78 | 1013.1 |
| 20260901084510 | 58 | 172 | 2.6 | 6.1 | 0.00 | 0.00 | 0.00 | 78 | 1013.2 |
| 20260901083009 | 58 | 122 | 3.5 | 7.0 | 0.00 | 0.00 | 0.00 | 78 | 1013.2 |
| 20260901081507 | 58 | 135 | 2.6 | 12.2 | 0.00 | 0.00 | 0.00 | 78 | 1013.1 |
| 20260901080006 | 58 | 108 | 4.3 | 9.6 | 0.00 | 0.00 | 0.00 | 78 | 1013.1 |
| 20260901074502 | 58 | 126 | 3.5 | 7.0 | 0.00 | 0.00 | 0.00 | 78 | 1013.1 |
| 20260901073100 | 58 | 128 | 2.6 | 8.7 | 0.00 | 0.00 | 0.00 | 78 | 1013.0 |
| 20260901071617 | 58 | 129 | 1.7 | 7.0 | 0.00 | 0.00 | 0.00 | 78 | 1012.9 |
| 20260901070055 | 59 | 136 | 2.6 | 8.7 | 0.00 | 0.00 | 0.00 | 77 | 1012.9 |
| 20260901064554 | 59 | 132 | 2.6 | 7.0 | 0.00 | 0.00 | 0.00 | 77 | 1012.9 |
| 20260901063053 | 59 | 114 | 2.6 | 8.7 | 0.00 | 0.00 | 0.00 | 77 | 1012.8 |
| 20260901061555 | 59 | 142 | 1.7 | 7.8 | 0.00 | 0.00 | 0.00 | 76 | 1012.8 |
| 20260901060050 | 60 | 97 | 2.6 | 6.1 | 0.00 | 0.00 | 0.00 | 76 | 1012.6 |
| 20260901054550 | 60 | 124 | 2.6 | 7.8 | 0.00 | 0.00 | 0.00 | 76 | 1012.5 |
| 20260901053050 | 60 | 101 | 2.6 | 7.8 | 0.00 | 0.00 | 0.00 | 76 | 1012.6 |
| 20260901051549 | 60 | 120 | 2.6 | 7.8 | 0.00 | 0.00 | 0.00 | 75 | 1012.6 |
| 20260901050048 | 61 | 112 | 3.5 | 7.8 | 0.00 | 0.00 | 0.00 | 75 | 1012.6 |
| 20260901044546 | 61 | 120 | 3.5 | 9.6 | 0.00 | 0.00 | 0.00 | 74 | 1012.5 |
| 20260901043107 | 62 | 115 | 1.7 | 7.8 | 0.00 | 0.00 | 0.00 | 73 | 1012.4 |
| 20260901041545 | 62 | 130 | 3.5 | 6.1 | 0.00 | 0.00 | 0.00 | 73 | 1012.3 |
| 20260901040051 | 63 | 86 | 1.7 | 7.8 | 0.00 | 0.00 | 0.00 | 72 | 1012.0 |
| 20260901034553 | 63 | 108 | 1.7 | 5.2 | 0.00 | 0.00 | 0.00 | 71 | 1011.8 |
| 20260901033102 | 64 | 144 | 1.7 | 6.1 | 0.00 | 0.00 | 0.00 | 70 | 1011.5 |
| 20260901031603 | 65 | 120 | 0.9 | 6.1 | 0.00 | 0.00 | 0.00 | 69 | 1011.3 |
| 20260901030046 | 66 | 91 | 2.6 | 7.8 | 0.00 | 0.00 | 0.00 | 67 | 1011.1 |
| 20260901024641 | 67 | 135 | 0.0 | 3.5 | 0.00 | 0.00 | 0.00 | 64 | 1010.9 |
| 20260901023042 | 68 | 68 | 0.0 | 5.2 | 0.00 | 0.00 | 0.00 | 62 | 1010.8 |
| 20260901021540 | 69 | 192 | 0.0 | 5.2 | 0.00 | 0.00 | 0.00 | 59 | 1010.6 |
| 20260901020039 | 71 | 143 | 0.9 | 7.8 | 0.00 | 0.00 | 0.00 | 57 | 1010.4 |
| 20260901014545 | 72 | 134 | 0.0 | 3.5 | 0.00 | 0.00 | 0.00 | 55 | 1010.2 |
| 20260901013045 | 74 | 130 | 0.9 | 5.2 | 0.00 | 0.00 | 0.00 | 53 | 1010.2 |
| 20260901011538 | 75 | 90 | 0.0 | 6.1 | 0.00 | 0.00 | 0.00 | 52 | 1010.1 |
| 20260901010037 | 76 | 120 | 0.9 | 7.8 | 0.00 | 0.00 | 0.00 | 51 | 1010.2 |
| 20260901004535 | 77 | 243 | 0.0 | 4.3 | 0.00 | 0.00 | 0.00 | 50 | 1010.2 |
| 20260901003036 | 78 | 360 | 0.9 | 4.3 | 0.00 | 0.00 | 0.00 | 50 | 1010.2 |
| 20260901001550 | 78 | 36 | 0.0 | 8.7 | 0.00 | 0.00 | 0.00 | 51 | 1010.2 |
| 20260901000033 | 79 | 210 | 0.0 | 2.6 | 0.00 | 0.00 | 0.00 | 50 | 1010.2 |
| 20260831234535 | 79 | 214 | 0.9 | 6.1 | 0.00 | 0.00 | 0.00 | 49 | 1010.2 |
| 20260831233033 | 79 | 148 | 0.0 | 4.3 | 0.00 | 0.00 | 0.00 | 49 | 1010.2 |
| 20260831231530 | 79 | 96 | 0.0 | 2.6 | 0.00 | 0.00 | 0.00 | 49 | 1010.5 |
| 20260831230029 | 79 | 142 | 1.7 | 4.3 | 0.00 | 0.00 | 0.00 | 48 | 1010.7 |
| 20260831224527 | 79 | 80 | 0.9 | 8.7 | 0.00 | 0.00 | 0.00 | 49 | 1010.9 |
| 20260831223027 | 79 | 120 | 0.0 | 6.1 | 0.00 | 0.00 | 0.00 | 49 | 1010.9 |
| 20260831221525 | 80 | 99 | 0.0 | 3.5 | 0.00 | 0.00 | 0.00 | 48 | 1011.0 |
| 20260831220024 | 79 | 82 | 0.9 | 4.3 | 0.00 | 0.00 | 0.00 | 47 | 1011.2 |
| 20260831214523 | 79 | 105 | 2.6 | 6.1 | 0.00 | 0.00 | 0.00 | 47 | 1011.2 |
| 20260831213022 | 79 | 286 | 0.0 | 7.0 | 0.00 | 0.00 | 0.00 | 48 | 1011.3 |
| 20260831211520 | 78 | 104 | 0.9 | 7.0 | 0.00 | 0.00 | 0.00 | 49 | 1011.4 |
| 20260831210021 | 78 | 156 | 0.0 | 5.2 | 0.00 | 0.00 | 0.00 | 49 | 1011.6 |
| 20260831204515 | 77 | 91 | 0.0 | 3.5 | 0.00 | 0.00 | 0.00 | 51 | 1011.7 |
| 20260831203014 | 76 | 114 | 0.9 | 5.2 | 0.00 | 0.00 | 0.00 | 51 | 1011.8 |
| 20260831201518 | 75 | 80 | 0.0 | 5.2 | 0.00 | 0.00 | 0.00 | 52 | 1011.9 |
| 20260831200012 | 75 | 278 | 0.0 | 5.2 | 0.00 | 0.00 | 0.00 | 53 | 1012.1 |
| 20260831194514 | 74 | 63 | 0.9 | 7.8 | 0.00 | 0.00 | 0.00 | 53 | 1012.2 |
| 20260831193011 | 75 | 153 | 0.0 | 6.1 | 0.00 | 0.00 | 0.00 | 54 | 1012.4 |
| 20260831191523 | 74 | 81 | 1.7 | 6.1 | 0.00 | 0.00 | 0.00 | 54 | 1012.4 |
| 20260831190006 | 73 | 120 | 0.0 | 7.8 | 0.00 | 0.00 | 0.00 | 55 | 1012.4 |
| 20260831184504 | 73 | 115 | 0.0 | 4.3 | 0.00 | 0.00 | 0.00 | 57 | 1012.4 |
| 20260831183006 | 72 | 340 | 0.9 | 4.3 | 0.00 | 0.00 | 0.00 | 57 | 1012.4 |
| 20260831181502 | 71 | 200 | 0.0 | 6.1 | 0.00 | 0.00 | 0.00 | 57 | 1012.3 |
| 20260831174601 | 70 | 79 | 0.0 | 7.8 | 0.00 | 0.00 | 0.00 | 59 | 1012.3 |
| 20260831173127 | 69 | 119 | 0.0 | 4.3 | 0.00 | 0.00 | 0.00 | 61 | 1012.3 |
| 20260831171553 | 68 | 99 | 0.9 | 5.2 | 0.00 | 0.00 | 0.00 | 62 | 1012.3 |
| 20260831170052 | 66 | 75 | 1.7 | 7.8 | 0.00 | 0.00 | 0.00 | 65 | 1012.2 |
| 20260831164604 | 66 | 122 | 0.9 | 7.0 | 0.00 | 0.00 | 0.00 | 66 | 1012.3 |
| 20260831163054 | 64 | 99 | 0.9 | 6.1 | 0.00 | 0.00 | 0.00 | 69 | 1012.3 |
| 20260831161549 | 63 | 119 | 0.0 | 5.2 | 0.00 | 0.00 | 0.00 | 71 | 1012.2 |
| 20260831160052 | 62 | 96 | 1.7 | 4.3 | 0.00 | 0.00 | 0.00 | 73 | 1012.4 |
| 20260831154547 | 61 | 89 | 1.7 | 4.3 | 0.00 | 0.00 | 0.00 | 76 | 1012.3 |
| 20260831153047 | 59 | 120 | 0.9 | 4.3 | 0.00 | 0.00 | 0.00 | 78 | 1012.3 |
| 20260831151546 | 59 | 110 | 0.0 | 3.5 | 0.00 | 0.00 | 0.00 | 79 | 1012.3 |
| 20260831150044 | 58 | 182 | 1.7 | 4.3 | 0.00 | 0.00 | 0.00 | 80 | 1012.1 |
| 20260831144547 | 57 | 124 | 1.7 | 4.3 | 0.00 | 0.00 | 0.00 | 81 | 1012.0 |
| 20260831143040 | 57 | 139 | 0.0 | 1.7 | 0.00 | 0.00 | 0.00 | 81 | 1011.8 |
| 20260831141537 | 57 | 144 | 0.0 | 1.7 | 0.00 | 0.00 | 0.00 | 82 | 1011.7 |
| 20260831140037 | 57 | 124 | 0.0 | 1.7 | 0.00 | 0.00 | 0.00 | 81 | 1011.4 |
| 20260831134533 | 57 | 118 | 0.0 | 2.6 | 0.00 | 0.00 | 0.00 | 81 | 1011.3 |
| 20260831133035 | 57 | 89 | 0.9 | 4.3 | 0.00 | 0.00 | 0.00 | 79 | 1011.1 |
| 20260831131527 | 58 | 134 | 0.0 | 0.9 | 0.00 | 0.00 | 0.00 | 78 | 1010.9 |
| 20260831130025 | 58 | 144 | 0.0 | 2.6 | 0.00 | 0.00 | 0.00 | 77 | 1010.7 |
| 20260831124537 | 59 | 121 | 0.9 | 3.5 | 0.00 | 0.00 | 0.00 | 75 | 1010.6 |
| 20260831123020 | 59 | 119 | 0.9 | 5.2 | 0.00 | 0.00 | 0.00 | 74 | 1010.6 |
| 20260831121519 | 59 | 117 | 0.0 | 2.6 | 0.00 | 0.00 | 0.00 | 73 | 1010.6 |
| 20260831120016 | 60 | 116 | 0.0 | 2.6 | 0.00 | 0.00 | 0.00 | 71 | 1010.5 |
| 20260831114532 | 60 | 103 | 0.0 | 0.0 | 0.00 | 0.00 | 0.00 | 70 | 1010.3 |
| 20260831113012 | 61 | 91 | 0.0 | 0.0 | 0.00 | 0.00 | 0.00 | 70 | 1010.3 |
| 20260831111509 | 61 | 115 | 0.0 | 1.7 | 0.00 | 0.00 | 0.00 | 69 | 1010.3 |
| 20260831110008 | 61 | 127 | 0.0 | 2.6 | 0.00 | 0.00 | 0.00 | 69 | 1010.4 |
| 20260831104507 | 62 | 119 | 0.0 | 2.6 | 0.00 | 0.00 | 0.00 | 68 | 1010.5 |
| 20260831103003 | 62 | 115 | 0.9 | 3.5 | 0.00 | 0.00 | 0.00 | 68 | 1010.4 |